Time,TemperatureF,DewpointF,PressureIn,WindDirection,WindDirectionDegrees,WindSpeedMPH,WindSpeedGustMPH,Humidity,HourlyPrecipIn,Conditions,Clouds,dailyrainin,SoftwareType,DateUTC
2013-02-25 00:00:00,49.6,39.5,29.89,NNW,338,0.0,0.0,68,0.00,,---,0.00,VWS V13.00,2013-02-25 06:00:00,
2013-02-25 00:15:00,50.3,40.2,29.87,NNW,338,0.0,2.0,68,0.00,,---,0.00,VWS V13.00,2013-02-25 06:15:00,
2013-02-25 00:30:00,51.0,39.7,29.88,NNW,338,0.0,1.0,65,0.00,,---,0.00,VWS V13.00,2013-02-25 06:30:00,
2013-02-25 00:45:00,51.5,39.3,29.88,NNW,338,0.0,2.0,63,0.00,,---,0.00,VWS V13.00,2013-02-25 06:45:00,
2013-02-25 01:00:00,51.5,38.9,29.88,ENE,68,0.0,3.0,62,0.00,,---,0.00,VWS V13.00,2013-02-25 07:00:00,
2013-02-25 01:15:00,51.6,38.6,29.89,SE,135,0.0,2.0,61,0.00,,---,0.00,VWS V13.00,2013-02-25 07:15:00,
2013-02-25 01:30:00,51.5,38.5,29.89,ENE,68,0.0,2.0,61,0.00,,---,0.00,VWS V13.00,2013-02-25 07:30:00,
2013-02-25 01:45:00,51.3,37.9,29.89,ENE,68,0.0,0.0,60,0.00,,---,0.00,VWS V13.00,2013-02-25 07:45:00,
2013-02-25 02:00:00,51.2,38.2,29.87,East,90,0.0,2.0,61,0.00,,---,0.00,VWS V13.00,2013-02-25 08:00:00,
2013-02-25 02:15:00,51.7,37.4,29.85,ENE,68,0.0,3.0,58,0.00,,---,0.00,VWS V13.00,2013-02-25 08:15:00,
2013-02-25 02:30:00,52.2,37.0,29.84,NE,45,1.0,4.0,56,0.00,,---,0.00,VWS V13.00,2013-02-25 08:30:00,
2013-02-25 02:45:00,52.2,37.0,29.85,East,90,0.0,6.0,56,0.00,,---,0.00,VWS V13.00,2013-02-25 08:45:00,
2013-02-25 03:00:00,52.2,36.1,29.86,SE,135,0.0,3.0,54,0.00,,---,0.00,VWS V13.00,2013-02-25 09:00:00,
2013-02-25 03:15:00,52.1,36.9,29.85,SE,135,0.0,1.0,56,0.00,,---,0.00,VWS V13.00,2013-02-25 09:15:00,
2013-02-25 03:30:00,52.3,36.6,29.83,NE,45,1.0,4.0,55,0.00,,---,0.00,VWS V13.00,2013-02-25 09:30:00,
2013-02-25 03:45:00,51.9,36.7,29.82,NE,45,1.0,5.0,56,0.00,,---,0.00,VWS V13.00,2013-02-25 09:45:00,
2013-02-25 04:00:00,51.6,36.4,29.82,NE,45,0.0,3.0,56,0.00,,---,0.00,VWS V13.00,2013-02-25 10:00:00,
2013-02-25 04:15:00,51.7,36.5,29.83,NE,45,1.0,3.0,56,0.00,,---,0.00,VWS V13.00,2013-02-25 10:15:00,
2013-02-25 04:30:00,51.7,35.6,29.83,East,90,1.0,3.0,54,0.00,,---,0.00,VWS V13.00,2013-02-25 10:30:00,
2013-02-25 04:45:00,51.7,35.1,29.84,SSE,158,1.0,4.0,53,0.00,,---,0.00,VWS V13.00,2013-02-25 10:45:00,
2013-02-25 05:00:00,51.6,35.5,29.85,East,90,0.0,1.0,54,0.00,,---,0.00,VWS V13.00,2013-02-25 11:00:00,
2013-02-25 05:15:00,51.7,36.1,29.85,NE,45,1.0,5.0,55,0.00,,---,0.00,VWS V13.00,2013-02-25 11:15:00,
2013-02-25 05:30:00,51.6,35.5,29.86,NE,45,0.0,3.0,54,0.00,,---,0.00,VWS V13.00,2013-02-25 11:30:00,
2013-02-25 05:45:00,51.5,35.9,29.85,NE,45,0.0,2.0,55,0.00,,---,0.00,VWS V13.00,2013-02-25 11:45:00,
2013-02-25 06:00:00,51.3,36.2,29.87,ENE,68,0.0,3.0,56,0.00,,---,0.00,VWS V13.00,2013-02-25 12:00:00,
2013-02-25 06:15:00,50.7,37.3,29.87,NE,45,1.0,4.0,60,0.00,,---,0.00,VWS V13.00,2013-02-25 12:15:00,
2013-02-25 06:30:00,50.5,39.2,29.87,ENE,68,1.0,3.0,65,0.00,,---,0.00,VWS V13.00,2013-02-25 12:30:00,
2013-02-25 06:45:00,50.4,40.6,29.88,ENE,68,1.0,3.0,69,0.00,,---,0.00,VWS V13.00,2013-02-25 12:45:00,
2013-02-25 07:00:00,50.3,40.9,29.89,ENE,68,1.0,3.0,70,0.00,,---,0.00,VWS V13.00,2013-02-25 13:00:00,
2013-02-25 07:15:00,50.5,41.5,29.88,NE,45,1.0,3.0,71,0.00,,---,0.00,VWS V13.00,2013-02-25 13:15:00,
2013-02-25 07:30:00,50.4,42.1,29.88,ENE,68,1.0,3.0,73,0.00,,---,0.00,VWS V13.00,2013-02-25 13:30:00,
2013-02-25 07:45:00,50.3,42.3,29.87,East,90,1.0,3.0,74,0.00,,---,0.00,VWS V13.00,2013-02-25 13:45:00,
2013-02-25 08:00:00,50.7,41.7,29.88,ENE,68,1.0,4.0,71,0.00,,---,0.00,VWS V13.00,2013-02-25 14:00:00,
2013-02-25 08:15:00,51.0,42.3,29.87,East,90,2.0,9.0,72,0.00,,---,0.00,VWS V13.00,2013-02-25 14:15:00,
2013-02-25 08:30:00,50.8,42.8,29.87,NE,45,2.0,5.0,74,0.00,,---,0.00,VWS V13.00,2013-02-25 14:30:00,
2013-02-25 08:45:00,50.7,43.4,29.85,NE,45,3.0,6.0,76,0.00,,---,0.00,VWS V13.00,2013-02-25 14:45:00,
2013-02-25 09:00:00,50.9,44.0,29.86,ENE,68,2.0,6.0,77,0.00,,---,0.00,VWS V13.00,2013-02-25 15:00:00,
2013-02-25 09:15:00,51.2,44.6,29.85,NE,45,2.0,5.0,78,0.00,,---,0.00,VWS V13.00,2013-02-25 15:15:00,
2013-02-25 09:30:00,51.1,44.8,29.85,ENE,68,2.0,15.0,79,0.00,,---,0.00,VWS V13.00,2013-02-25 15:30:00,
2013-02-25 09:45:00,51.3,45.0,29.85,ENE,68,1.0,5.0,79,0.00,,---,0.00,VWS V13.00,2013-02-25 15:45:00,
2013-02-25 10:07:00,51.4,46.4,29.85,East,90,2.0,6.0,83,0.01,,---,0.01,VWS V13.00,2013-02-25 16:07:00,
2013-02-25 10:12:00,51.0,47.0,29.84,NE,40,0.0,3.0,86,0.01,,---,0.01,VWS V13.00,2013-02-25 16:12:00,
2013-02-25 10:17:00,51.2,47.2,29.84,ENE,74,0.0,3.0,86,0.01,,---,0.01,VWS V13.00,2013-02-25 16:17:00,
2013-02-25 10:22:00,51.5,47.2,29.84,East,82,1.0,4.0,85,0.01,,---,0.01,VWS V13.00,2013-02-25 16:22:00,
2013-02-25 10:27:00,51.9,47.5,29.84,ENE,69,0.0,4.0,85,0.01,,---,0.01,VWS V13.00,2013-02-25 16:27:00,
2013-02-25 10:32:00,52.3,47.6,29.84,ENE,65,3.0,4.0,84,0.01,,---,0.01,VWS V13.00,2013-02-25 16:32:00,
2013-02-25 10:37:00,52.6,47.9,29.84,ENE,78,4.0,4.0,84,0.01,,---,0.01,VWS V13.00,2013-02-25 16:37:00,
2013-02-25 10:42:00,52.5,47.5,29.83,NE,49,2.0,5.0,83,0.01,,---,0.01,VWS V13.00,2013-02-25 16:42:00,
2013-02-25 10:47:00,52.6,47.6,29.83,ENE,78,0.0,5.0,83,0.01,,---,0.01,VWS V13.00,2013-02-25 16:47:00,
2013-02-25 10:52:00,53.0,48.3,29.83,East,96,3.0,4.0,84,0.01,,---,0.01,VWS V13.00,2013-02-25 16:52:00,
2013-02-25 10:57:00,53.6,48.9,29.83,ENE,57,1.0,4.0,84,0.01,,---,0.01,VWS V13.00,2013-02-25 16:57:00,
2013-02-25 11:02:00,54.2,48.5,29.83,ENE,63,2.0,5.0,81,0.01,,---,0.01,VWS V13.00,2013-02-25 17:02:00,
2013-02-25 11:07:00,54.6,49.2,29.83,East,94,1.0,3.0,82,0.00,,---,0.01,VWS V13.00,2013-02-25 17:07:00,
2013-02-25 11:13:00,54.9,49.2,29.82,ESE,107,5.0,6.0,81,0.00,,---,0.01,VWS V13.00,2013-02-25 17:13:00,
2013-02-25 11:18:00,55.2,50.1,29.82,East,82,0.0,6.0,83,0.00,,---,0.01,VWS V13.00,2013-02-25 17:18:00,
2013-02-25 11:23:00,55.6,49.9,29.82,SE,137,5.0,9.0,81,0.00,,---,0.01,VWS V13.00,2013-02-25 17:23:00,
2013-02-25 11:28:00,55.9,50.2,29.82,East,93,2.0,9.0,81,0.00,,---,0.01,VWS V13.00,2013-02-25 17:28:00,
2013-02-25 11:33:00,56.2,50.5,29.82,NE,45,0.0,9.0,81,0.00,,---,0.01,VWS V13.00,2013-02-25 17:33:00,
2013-02-25 11:38:00,56.4,50.3,29.82,East,98,0.0,4.0,80,0.00,,---,0.01,VWS V13.00,2013-02-25 17:38:00,
2013-02-25 11:43:00,56.5,50.8,29.82,ESE,104,3.0,4.0,81,0.00,,---,0.01,VWS V13.00,2013-02-25 17:43:00,
2013-02-25 11:48:00,56.6,50.8,29.82,ENE,58,2.0,5.0,81,0.00,,---,0.01,VWS V13.00,2013-02-25 17:48:00,
2013-02-25 11:53:00,56.7,50.6,29.82,East,81,3.0,4.0,80,0.00,,---,0.01,VWS V13.00,2013-02-25 17:53:00,
2013-02-25 11:58:00,56.6,50.5,29.82,East,82,4.0,7.0,80,0.00,,---,0.01,VWS V13.00,2013-02-25 17:58:00,
2013-02-25 12:03:00,56.5,50.4,29.81,ESE,118,2.0,7.0,80,0.00,,---,0.01,VWS V13.00,2013-02-25 18:03:00,
2013-02-25 12:08:00,56.5,50.4,29.81,East,89,2.0,6.0,80,0.00,,---,0.01,VWS V13.00,2013-02-25 18:08:00,
2013-02-25 12:13:00,56.5,50.8,29.81,ESE,105,2.0,7.0,81,0.00,,---,0.01,VWS V13.00,2013-02-25 18:13:00,
2013-02-25 12:18:00,56.6,50.8,29.80,SE,134,3.0,7.0,81,0.00,,---,0.01,VWS V13.00,2013-02-25 18:18:00,
2013-02-25 12:23:00,56.7,50.9,29.80,East,86,5.0,9.0,81,0.00,,---,0.01,VWS V13.00,2013-02-25 18:23:00,
2013-02-25 12:28:00,56.7,50.9,29.79,East,82,3.0,9.0,81,0.00,,---,0.01,VWS V13.00,2013-02-25 18:28:00,
2013-02-25 12:33:00,57.0,51.2,29.79,SE,134,5.0,9.0,81,0.00,,---,0.01,VWS V13.00,2013-02-25 18:33:00,
2013-02-25 12:38:00,57.4,51.3,29.79,SE,132,3.0,7.0,80,0.00,,---,0.01,VWS V13.00,2013-02-25 18:38:00,
2013-02-25 12:43:00,57.7,51.6,29.79,ESE,119,0.0,7.0,80,0.00,,---,0.01,VWS V13.00,2013-02-25 18:43:00,
2013-02-25 12:48:00,58.4,52.3,29.79,SE,144,5.0,7.0,80,0.00,,---,0.01,VWS V13.00,2013-02-25 18:48:00,
2013-02-25 12:53:00,59.0,52.5,29.78,SE,134,5.0,7.0,79,0.00,,---,0.01,VWS V13.00,2013-02-25 18:53:00,
2013-02-25 12:58:00,59.0,52.2,29.78,East,96,1.0,7.0,78,0.00,,---,0.01,VWS V13.00,2013-02-25 18:58:00,
2013-02-25 13:03:00,59.0,52.5,29.77,ENE,59,2.0,7.0,79,0.00,,---,0.01,VWS V13.00,2013-02-25 19:03:00,
2013-02-25 13:08:00,59.3,52.8,29.77,East,80,1.0,5.0,79,0.00,,---,0.01,VWS V13.00,2013-02-25 19:08:00,
2013-02-25 13:13:00,59.3,52.5,29.77,ESE,109,2.0,7.0,78,0.00,,---,0.01,VWS V13.00,2013-02-25 19:13:00,
2013-02-25 13:18:00,59.6,52.7,29.77,SSE,160,2.0,7.0,78,0.00,,---,0.01,VWS V13.00,2013-02-25 19:18:00,
2013-02-25 13:23:00,59.9,52.7,29.77,SE,133,2.0,5.0,77,0.00,,---,0.01,VWS V13.00,2013-02-25 19:23:00,
2013-02-25 13:28:00,60.0,53.1,29.76,East,95,3.0,5.0,78,0.00,,---,0.01,VWS V13.00,2013-02-25 19:28:00,
2013-02-25 13:33:00,60.4,53.5,29.76,East,96,0.0,6.0,78,0.00,,---,0.01,VWS V13.00,2013-02-25 19:33:00,
2013-02-25 13:38:00,60.9,54.0,29.76,ESE,104,0.0,4.0,78,0.00,,---,0.01,VWS V13.00,2013-02-25 19:38:00,
2013-02-25 13:43:00,61.0,53.8,29.76,SE,146,3.0,5.0,77,0.00,,---,0.01,VWS V13.00,2013-02-25 19:43:00,
2013-02-25 13:48:00,61.0,53.8,29.75,ESE,107,2.0,5.0,77,0.00,,---,0.01,VWS V13.00,2013-02-25 19:48:00,
2013-02-25 13:53:00,61.1,53.8,29.75,ESE,111,2.0,5.0,77,0.00,,---,0.01,VWS V13.00,2013-02-25 19:53:00,
2013-02-25 13:58:00,61.2,53.9,29.75,East,85,3.0,6.0,77,0.00,,---,0.01,VWS V13.00,2013-02-25 19:58:00,
2013-02-25 14:03:00,61.1,53.8,29.75,ESE,102,2.0,6.0,77,0.00,,---,0.01,VWS V13.00,2013-02-25 20:03:00,
2013-02-25 14:08:00,61.3,54.4,29.75,ESE,123,2.0,4.0,78,0.00,,---,0.01,VWS V13.00,2013-02-25 20:08:00,
2013-02-25 14:13:00,61.3,54.4,29.74,East,79,2.0,8.0,78,0.00,,---,0.01,VWS V13.00,2013-02-25 20:13:00,
2013-02-25 14:18:00,61.3,54.7,29.74,East,82,2.0,10.0,79,0.00,,---,0.01,VWS V13.00,2013-02-25 20:18:00,
2013-02-25 14:23:00,61.4,54.8,29.74,ESE,123,0.0,6.0,79,0.00,,---,0.01,VWS V13.00,2013-02-25 20:23:00,
2013-02-25 14:28:00,61.4,54.8,29.73,ENE,69,2.0,7.0,79,0.00,,---,0.01,VWS V13.00,2013-02-25 20:28:00,
2013-02-25 14:33:00,61.4,54.8,29.73,East,84,4.0,7.0,79,0.00,,---,0.01,VWS V13.00,2013-02-25 20:33:00,
2013-02-25 14:38:00,61.3,55.1,29.73,SE,136,3.0,6.0,80,0.00,,---,0.01,VWS V13.00,2013-02-25 20:38:00,
2013-02-25 14:43:00,61.2,55.0,29.73,SSE,160,0.0,6.0,80,0.00,,---,0.01,VWS V13.00,2013-02-25 20:43:00,
2013-02-25 14:48:00,61.0,55.1,29.73,ESE,121,2.0,7.0,81,0.00,,---,0.01,VWS V13.00,2013-02-25 20:48:00,
2013-02-25 14:53:00,60.8,55.3,29.73,NE,56,1.0,7.0,82,0.00,,---,0.01,VWS V13.00,2013-02-25 20:53:00,
2013-02-25 14:58:00,60.7,55.2,29.73,East,94,2.0,7.0,82,0.00,,---,0.01,VWS V13.00,2013-02-25 20:58:00,
2013-02-25 15:03:00,60.6,55.1,29.73,SE,138,3.0,7.0,82,0.00,,---,0.01,VWS V13.00,2013-02-25 21:03:00,
2013-02-25 15:08:00,60.5,55.0,29.73,East,88,1.0,7.0,82,0.00,,---,0.01,VWS V13.00,2013-02-25 21:08:00,
2013-02-25 15:13:00,60.4,54.9,29.72,NNE,29,5.0,7.0,82,0.00,,---,0.01,VWS V13.00,2013-02-25 21:13:00,
2013-02-25 15:18:00,60.3,54.8,29.72,SSE,148,4.0,10.0,82,0.00,,---,0.01,VWS V13.00,2013-02-25 21:18:00,
2013-02-25 15:24:00,60.0,54.2,29.71,SE,130,2.0,6.0,81,0.00,,---,0.01,VWS V13.00,2013-02-25 21:24:00,
2013-02-25 15:29:00,59.9,54.1,29.71,ESE,118,2.0,7.0,81,0.00,,---,0.01,VWS V13.00,2013-02-25 21:29:00,
2013-02-25 15:34:00,59.8,54.3,29.71,East,82,1.0,8.0,82,0.00,,---,0.01,VWS V13.00,2013-02-25 21:34:00,
2013-02-25 15:39:00,59.5,53.7,29.71,ESE,111,3.0,8.0,81,0.00,,---,0.01,VWS V13.00,2013-02-25 21:39:00,
2013-02-25 15:44:00,59.0,53.2,29.71,SE,144,8.0,14.0,81,0.00,,---,0.01,VWS V13.00,2013-02-25 21:44:00,
2013-02-25 15:49:00,59.0,53.5,29.71,ESE,107,0.0,14.0,82,0.00,,---,0.01,VWS V13.00,2013-02-25 21:49:00,
2013-02-25 15:54:00,58.9,53.8,29.71,SE,125,1.0,6.0,83,0.00,,---,0.01,VWS V13.00,2013-02-25 21:54:00,
2013-02-25 15:59:00,58.7,53.2,29.70,ENE,67,3.0,7.0,82,0.00,,---,0.01,VWS V13.00,2013-02-25 21:59:00,
2013-02-25 16:04:00,58.6,53.1,29.71,SE,136,4.0,6.0,82,0.00,,---,0.01,VWS V13.00,2013-02-25 22:04:00,
2013-02-25 16:09:00,58.4,53.3,29.70,North,355,3.0,6.0,83,0.00,,---,0.01,VWS V13.00,2013-02-25 22:09:00,
2013-02-25 16:14:00,58.2,53.1,29.70,ESE,123,1.0,11.0,83,0.00,,---,0.01,VWS V13.00,2013-02-25 22:14:00,
2013-02-25 16:19:00,58.1,53.0,29.70,ESE,116,0.0,2.0,83,0.00,,---,0.01,VWS V13.00,2013-02-25 22:19:00,
2013-02-25 16:24:00,57.9,52.8,29.70,East,99,1.0,5.0,83,0.00,,---,0.01,VWS V13.00,2013-02-25 22:24:00,
2013-02-25 16:29:00,57.6,52.5,29.68,East,98,3.0,6.0,83,0.00,,---,0.01,VWS V13.00,2013-02-25 22:29:00,
2013-02-25 16:34:00,57.3,52.2,29.68,ENE,61,4.0,4.0,83,0.00,,---,0.01,VWS V13.00,2013-02-25 22:34:00,
2013-02-25 16:39:00,56.9,52.1,29.68,East,87,3.0,7.0,84,0.00,,---,0.01,VWS V13.00,2013-02-25 22:39:00,
2013-02-25 16:44:00,56.6,52.2,29.69,East,87,7.0,7.0,85,0.00,,---,0.01,VWS V13.00,2013-02-25 22:44:00,
2013-02-25 16:49:00,56.3,51.9,29.68,ENE,72,3.0,3.0,85,0.00,,---,0.01,VWS V13.00,2013-02-25 22:49:00,
2013-02-25 16:54:00,56.2,52.1,29.69,NE,51,0.0,6.0,86,0.00,,---,0.01,VWS V13.00,2013-02-25 22:54:00,
2013-02-25 16:59:00,55.9,51.8,29.69,East,92,2.0,6.0,86,0.00,,---,0.01,VWS V13.00,2013-02-25 22:59:00,
2013-02-25 17:04:00,55.5,51.7,29.71,ENE,66,4.0,5.0,87,0.00,,---,0.01,VWS V13.00,2013-02-25 23:04:00,
2013-02-25 17:09:00,55.0,51.2,29.71,SE,132,9.0,10.0,87,0.00,,---,0.01,VWS V13.00,2013-02-25 23:09:00,
2013-02-25 17:14:00,54.6,51.1,29.71,East,94,0.0,10.0,88,0.00,,---,0.01,VWS V13.00,2013-02-25 23:14:00,
2013-02-25 17:19:00,54.3,50.8,29.71,ESE,106,2.0,2.0,88,0.00,,---,0.01,VWS V13.00,2013-02-25 23:19:00,
2013-02-25 17:24:00,54.1,50.9,29.72,ENE,76,2.0,6.0,89,0.00,,---,0.01,VWS V13.00,2013-02-25 23:24:00,
2013-02-25 17:29:00,54.0,50.8,29.73,East,101,5.0,7.0,89,0.00,,---,0.01,VWS V13.00,2013-02-25 23:29:00,
2013-02-25 17:34:00,53.9,50.7,29.72,ESE,105,5.0,5.0,89,0.00,,---,0.01,VWS V13.00,2013-02-25 23:34:00,
2013-02-25 17:39:00,53.7,50.5,29.72,East,89,3.0,10.0,89,0.00,,---,0.01,VWS V13.00,2013-02-25 23:39:00,
2013-02-25 17:44:00,53.5,50.3,29.71,North,360,3.0,10.0,89,0.00,,---,0.01,VWS V13.00,2013-02-25 23:44:00,
2013-02-25 17:49:00,53.3,50.5,29.70,East,99,0.0,2.0,90,0.00,,---,0.01,VWS V13.00,2013-02-25 23:49:00,
2013-02-25 17:54:00,53.1,50.2,29.70,NE,50,5.0,5.0,90,0.00,,---,0.01,VWS V13.00,2013-02-25 23:54:00,
2013-02-25 17:59:00,53.0,50.2,29.69,ESE,103,4.0,8.0,90,0.00,,---,0.01,VWS V13.00,2013-02-25 23:59:00,
2013-02-25 18:04:00,52.9,50.0,29.69,ESE,113,0.0,3.0,90,0.00,,---,0.01,VWS V13.00,2013-02-26 00:04:00,
2013-02-25 18:09:00,52.8,50.0,29.70,East,83,1.0,6.0,90,0.00,,---,0.01,VWS V13.00,2013-02-26 00:09:00,
2013-02-25 18:14:00,52.7,50.2,29.70,ESE,113,6.0,12.0,91,0.00,,---,0.01,VWS V13.00,2013-02-26 00:14:00,
2013-02-25 18:19:00,52.7,50.2,29.70,ESE,102,4.0,6.0,91,0.00,,---,0.01,VWS V13.00,2013-02-26 00:19:00,
2013-02-25 18:24:00,52.6,50.0,29.70,NE,44,5.0,11.0,91,0.00,,---,0.01,VWS V13.00,2013-02-26 00:24:00,
2013-02-25 18:29:00,52.5,50.0,29.70,ESE,119,2.0,11.0,91,0.00,,---,0.01,VWS V13.00,2013-02-26 00:29:00,
2013-02-25 18:34:00,52.4,49.8,29.70,SE,143,3.0,3.0,91,0.00,,---,0.01,VWS V13.00,2013-02-26 00:34:00,
2013-02-25 18:39:00,52.4,50.2,29.70,East,90,0.0,6.0,92,0.00,,---,0.01,VWS V13.00,2013-02-26 00:39:00,
2013-02-25 18:44:00,52.4,50.2,29.69,North,11,3.0,9.0,92,0.00,,---,0.01,VWS V13.00,2013-02-26 00:44:00,
2013-02-25 18:49:00,52.3,49.8,29.69,ENE,76,3.0,4.0,91,0.00,,---,0.01,VWS V13.00,2013-02-26 00:49:00,
2013-02-25 18:54:00,52.3,50.0,29.69,ENE,60,1.0,6.0,92,0.00,,---,0.01,VWS V13.00,2013-02-26 00:54:00,
2013-02-25 18:59:00,52.3,50.0,29.67,East,95,3.0,6.0,92,0.00,,---,0.01,VWS V13.00,2013-02-26 00:59:00,
2013-02-25 19:04:00,52.3,50.0,29.67,East,88,3.0,3.0,92,0.00,,---,0.01,VWS V13.00,2013-02-26 01:04:00,
2013-02-25 19:09:00,52.2,50.0,29.67,NE,36,7.0,10.0,92,0.00,,---,0.01,VWS V13.00,2013-02-26 01:09:00,
2013-02-25 19:14:00,52.2,50.0,29.66,East,98,3.0,10.0,92,0.00,,---,0.01,VWS V13.00,2013-02-26 01:14:00,
2013-02-25 19:19:00,52.2,50.0,29.67,East,94,1.0,1.0,92,0.00,,---,0.01,VWS V13.00,2013-02-26 01:19:00,
2013-02-25 19:24:00,52.2,50.0,29.67,ESE,115,0.0,7.0,92,0.00,,---,0.01,VWS V13.00,2013-02-26 01:24:00,
2013-02-25 19:29:00,52.2,50.0,29.66,East,88,4.0,7.0,92,0.00,,---,0.01,VWS V13.00,2013-02-26 01:29:00,
2013-02-25 19:35:00,52.1,49.8,29.65,East,80,5.0,6.0,92,0.00,,---,0.01,VWS V13.00,2013-02-26 01:35:00,
2013-02-25 19:40:00,52.0,50.0,29.65,East,92,3.0,11.0,93,0.00,,---,0.01,VWS V13.00,2013-02-26 01:40:00,
2013-02-25 19:45:00,51.7,49.8,29.64,East,101,3.0,13.0,93,0.00,,---,0.01,VWS V13.00,2013-02-26 01:45:00,
2013-02-25 19:50:00,51.5,49.8,29.65,East,87,5.0,6.0,94,0.00,,---,0.01,VWS V13.00,2013-02-26 01:50:00,
2013-02-25 19:55:00,51.4,49.7,29.66,SE,126,4.0,6.0,94,0.00,,---,0.01,VWS V13.00,2013-02-26 01:55:00,
2013-02-25 20:00:00,51.3,49.9,29.65,ESE,110,3.0,7.0,95,0.00,,---,0.01,VWS V13.00,2013-02-26 02:00:00,
2013-02-25 20:05:00,51.2,49.8,29.65,East,94,2.0,4.0,95,0.00,,---,0.01,VWS V13.00,2013-02-26 02:05:00,
2013-02-25 20:10:00,51.1,49.7,29.66,NE,46,1.0,6.0,95,0.01,,---,0.02,VWS V13.00,2013-02-26 02:10:00,
2013-02-25 20:15:00,51.0,49.9,29.66,East,98,2.0,10.0,96,0.01,,---,0.02,VWS V13.00,2013-02-26 02:15:00,
2013-02-25 20:20:00,51.0,49.9,29.66,ENE,69,2.0,3.0,96,0.01,,---,0.02,VWS V13.00,2013-02-26 02:20:00,
2013-02-25 20:25:00,50.9,49.8,29.66,ESE,104,1.0,7.0,96,0.01,,---,0.02,VWS V13.00,2013-02-26 02:25:00,
2013-02-25 20:30:00,50.8,49.7,29.65,SE,142,2.0,7.0,96,0.01,,---,0.02,VWS V13.00,2013-02-26 02:30:00,
2013-02-25 20:35:00,50.7,49.6,29.64,East,92,0.0,4.0,96,0.01,,---,0.02,VWS V13.00,2013-02-26 02:35:00,
2013-02-25 20:40:00,50.6,49.5,29.65,ESE,108,1.0,4.0,96,0.01,,---,0.02,VWS V13.00,2013-02-26 02:40:00,
2013-02-25 20:45:00,50.5,49.7,29.64,East,84,1.0,9.0,97,0.01,,---,0.02,VWS V13.00,2013-02-26 02:45:00,
2013-02-25 20:50:00,50.5,49.4,29.64,East,82,5.0,6.0,96,0.01,,---,0.02,VWS V13.00,2013-02-26 02:50:00,
2013-02-25 20:55:00,50.4,49.6,29.64,ESE,107,4.0,6.0,97,0.01,,---,0.02,VWS V13.00,2013-02-26 02:55:00,
2013-02-25 21:00:00,50.3,49.5,29.65,ENE,63,2.0,6.0,97,0.01,,---,0.02,VWS V13.00,2013-02-26 03:00:00,
2013-02-25 21:05:00,50.3,49.5,29.66,East,88,2.0,2.0,97,0.01,,---,0.02,VWS V13.00,2013-02-26 03:05:00,
2013-02-25 21:10:00,50.2,49.4,29.66,SE,145,1.0,6.0,97,0.01,,---,0.02,VWS V13.00,2013-02-26 03:10:00,
2013-02-25 21:15:00,50.1,49.3,29.66,East,94,6.0,9.0,97,0.01,,---,0.02,VWS V13.00,2013-02-26 03:15:00,
2013-02-25 21:20:00,50.0,49.2,29.65,East,91,3.0,3.0,97,0.01,,---,0.02,VWS V13.00,2013-02-26 03:20:00,
2013-02-25 21:25:00,50.0,49.2,29.66,ESE,109,1.0,5.0,97,0.00,,---,0.02,VWS V13.00,2013-02-26 03:25:00,
2013-02-25 21:30:00,49.9,49.1,29.66,ESE,106,2.0,5.0,97,0.00,,---,0.02,VWS V13.00,2013-02-26 03:30:00,
2013-02-25 21:35:00,49.8,49.0,29.66,ESE,107,2.0,3.0,97,0.00,,---,0.02,VWS V13.00,2013-02-26 03:35:00,
2013-02-25 21:40:00,49.7,48.9,29.66,ESE,111,3.0,7.0,97,0.00,,---,0.02,VWS V13.00,2013-02-26 03:40:00,
2013-02-25 21:45:00,49.6,48.8,29.64,NNE,26,2.0,7.0,97,0.00,,---,0.02,VWS V13.00,2013-02-26 03:45:00,
2013-02-25 21:50:00,49.6,48.8,29.62,ESE,116,3.0,3.0,97,0.00,,---,0.02,VWS V13.00,2013-02-26 03:50:00,
2013-02-25 21:55:00,49.5,48.7,29.61,East,88,3.0,5.0,97,0.00,,---,0.02,VWS V13.00,2013-02-26 03:55:00,
2013-02-25 22:00:00,49.5,49.0,29.59,East,79,3.0,11.0,98,0.00,,---,0.02,VWS V13.00,2013-02-26 04:00:00,
2013-02-25 22:05:00,49.5,49.0,29.58,ESE,103,2.0,3.0,98,0.00,,---,0.02,VWS V13.00,2013-02-26 04:05:00,
2013-02-25 22:10:00,49.5,49.0,29.60,SSE,161,0.0,6.0,98,0.00,,---,0.02,VWS V13.00,2013-02-26 04:10:00,
2013-02-25 22:15:00,49.6,49.1,29.60,NE,34,2.0,6.0,98,0.00,,---,0.02,VWS V13.00,2013-02-26 04:15:00,
2013-02-25 22:20:00,49.5,49.0,29.57,East,91,4.0,6.0,98,0.00,,---,0.02,VWS V13.00,2013-02-26 04:20:00,
2013-02-25 22:25:00,49.5,49.0,29.57,SE,129,1.0,7.0,98,0.00,,---,0.02,VWS V13.00,2013-02-26 04:25:00,
2013-02-25 22:30:00,49.5,49.0,29.56,East,94,1.0,7.0,98,0.00,,---,0.02,VWS V13.00,2013-02-26 04:30:00,
2013-02-25 22:35:00,49.5,49.0,29.55,East,96,3.0,3.0,98,0.00,,---,0.02,VWS V13.00,2013-02-26 04:35:00,
2013-02-25 22:40:00,49.6,49.1,29.55,ESE,122,2.0,15.0,98,0.00,,---,0.02,VWS V13.00,2013-02-26 04:40:00,
2013-02-25 22:45:00,49.6,49.1,29.53,ESE,106,4.0,15.0,98,0.00,,---,0.02,VWS V13.00,2013-02-26 04:45:00,
2013-02-25 22:50:00,49.6,48.8,29.53,ENE,65,2.0,4.0,97,0.00,,---,0.02,VWS V13.00,2013-02-26 04:50:00,
2013-02-25 22:55:00,49.6,48.8,29.54,ESE,106,1.0,5.0,97,0.00,,---,0.02,VWS V13.00,2013-02-26 04:55:00,
2013-02-25 23:00:00,49.5,48.7,29.53,East,92,2.0,8.0,97,0.00,,---,0.02,VWS V13.00,2013-02-26 05:00:00,
2013-02-25 23:05:00,49.6,48.8,29.51,East,86,4.0,11.0,97,0.00,,---,0.02,VWS V13.00,2013-02-26 05:05:00,
2013-02-25 23:10:00,49.6,48.8,29.50,ESE,110,2.0,11.0,97,0.00,,---,0.02,VWS V13.00,2013-02-26 05:10:00,
2013-02-25 23:15:00,49.7,48.9,29.50,ESE,118,2.0,11.0,97,0.00,,---,0.02,VWS V13.00,2013-02-26 05:15:00,
2013-02-25 23:20:00,49.7,48.9,29.50,ENE,72,6.0,6.0,97,0.01,,---,0.03,VWS V13.00,2013-02-26 05:20:00,
2013-02-25 23:25:00,49.7,48.9,29.51,ESE,113,2.0,7.0,97,0.02,,---,0.04,VWS V13.00,2013-02-26 05:25:00,
2013-02-25 23:30:00,49.7,48.9,29.51,ESE,103,1.0,7.0,97,0.02,,---,0.04,VWS V13.00,2013-02-26 05:30:00,
2013-02-25 23:35:00,49.6,48.8,29.51,SSE,151,6.0,6.0,97,0.04,,---,0.06,VWS V13.00,2013-02-26 05:35:00,
2013-02-25 23:40:00,49.5,48.7,29.52,SE,137,3.0,7.0,97,0.05,,---,0.07,VWS V13.00,2013-02-26 05:40:00,
2013-02-25 23:45:00,49.4,48.6,29.51,East,89,3.0,10.0,97,0.07,,---,0.10,VWS V13.00,2013-02-26 05:45:00,
2013-02-25 23:50:00,49.2,48.4,29.51,West,264,2.0,5.0,97,0.10,,---,0.12,VWS V13.00,2013-02-26 05:50:00,
2013-02-25 23:55:00,49.2,48.4,29.50,SE,129,5.0,6.0,97,0.12,,---,0.14,VWS V13.00,2013-02-26 05:55:00,